Date,TemperatureHighF,TemperatureAvgF,TemperatureLowF,DewpointHighF,DewpointAvgF,DewpointLowF,HumidityHigh,HumidityAvg,HumidityLow,PressureMaxIn,PressureMinIn,WindSpeedMaxMPH,WindSpeedAvgMPH,GustSpeedMaxMPH,PrecipitationSumIn
2013-10-1,72,62,57,19,18,17,21,19,13,0.00,40.00,6,5,11,0.01
2013-10-2,74,62,46,22,17,9,34,19,8,0.00,40.00,7,5,17,0.01
2013-10-3,72,60,45,32,23,14,56,27,14,0.00,40.00,17,10,27,0.00
2013-10-4,57,42,33,28,18,10,65,39,18,0.00,40.00,21,13,32,0.01
2013-10-5,54,39,27,22,17,13,73,44,21,0.00,40.00,13,8,20,0.01
2013-10-6,63,48,30,19,16,11,54,31,13,0.00,40.00,8,4,13,0.00
2013-10-7,74,66,54,18,12,7,20,13,8,0.00,40.00,7,5,13,0.05
2013-10-8,73,62,46,22,19,16,32,20,14,0.00,40.00,15,9,26,0.04
2013-10-9,70,58,43,29,20,9,42,25,9,0.00,40.00,16,9,47,0.00
2013-10-10,57,45,33,43,31,24,90,62,28,0.00,40.00,22,13,38,0.00
2013-10-11,51,40,31,34,30,27,87,68,45,0.00,40.00,9,5,14,0.00
2013-10-12,63,47,35,34,27,-100,82,52,20,0.00,40.00,11,7,19,0.00
2013-10-13,71,59,47,34,29,20,55,34,17,0.00,40.00,18,12,29,0.00
2013-10-14,56,47,35,28,24,19,71,42,27,0.00,40.00,13,7,21,0.00
2013-10-15,59,47,33,26,21,14,65,39,17,0.00,40.00,11,6,21,0.00
2013-10-18,54,45,31,19,12,6,47,28,15,0.00,40.00,19,13,30,0.00
2013-10-19,57,45,30,15,11,-100,45,27,16,0.00,40.00,15,8,28,0.00
2013-10-20,60,52,41,15,11,9,34,20,13,0.00,40.00,16,10,27,0.00
2013-10-21,61,52,35,16,13,11,38,22,14,0.00,40.00,9,5,21,0.00
2013-10-22,64,54,41,17,16,13,32,22,15,0.00,40.00,8,4,17,0.00
2013-10-23,69,59,45,17,15,14,31,18,12,0.00,40.00,7,5,16,0.00
2013-10-24,71,58,44,43,22,16,82,28,12,0.00,40.00,13,7,24,0.00
2013-10-25,62,49,41,44,40,34,92,74,40,0.00,40.00,12,7,21,0.00
2013-10-26,63,49,38,41,34,-100,93,64,28,0.00,40.00,7,4,11,0.00
2013-10-27,64,52,39,35,30,25,72,47,23,0.00,40.00,11,6,21,0.00
2013-10-28,65,51,40,32,20,-100,61,34,13,0.00,40.00,21,10,35,0.00
2013-10-29,60,47,36,36,23,16,93,42,18,0.00,40.00,22,11,36,0.00
2013-10-30,47,36,30,34,28,20,94,76,34,0.00,40.00,15,6,29,0.00
2013-10-31,46,35,26,31,24,21,92,69,36,0.00,40.00,19,8,32,0.00